GW3674 Weather Reports


Display with metric or nautical units.
time (UTC)temp
F
wind
direction
speed
MPH
gust
MPH
rain 1hr
in
rain 24hr
in
rain mn
in
humidity
%
barometer
mb
20260509100015 62 13 0.0 0.0 0.00 0.00 0.00 81 1013.1
20260509094515 62 13 0.0 0.0 0.00 0.00 0.00 81 1013.1
20260509093014 63 13 0.0 0.0 0.00 0.00 0.00 81 1013.4
20260509091526 63 13 0.0 1.0 0.00 0.00 0.00 81 1013.4
20260509090012 63 13 0.0 0.0 0.00 0.00 0.00 81 1013.4
20260509084520 62 13 0.0 1.0 0.00 0.00 0.00 81 1013.5
20260509083018 62 13 0.0 0.0 0.00 0.00 0.00 82 1013.3
20260509081516 62 13 0.0 2.0 0.00 0.00 0.00 82 1012.7
20260509080024 62 13 0.0 2.0 0.00 0.00 0.00 82 1014.1
20260509074515 62 13 0.0 1.0 0.00 0.00 0.00 82 1013.9
20260509073035 62 13 0.0 1.0 0.00 0.00 0.00 83 1013.7
20260509071518 62 13 0.0 1.0 0.00 0.00 0.00 83 1013.7
20260509070021 63 13 0.0 2.0 0.00 0.00 0.00 83 1013.7
20260509064521 63 13 0.0 3.0 0.00 0.00 0.00 83 1013.9
20260509063016 63 92 1.0 3.0 0.00 0.00 0.00 83 1014.2
20260509061524 63 93 0.0 2.0 0.00 0.00 0.00 83 1014.4
20260509060007 63 5 0.0 3.0 0.00 0.00 0.00 83 1014.9
20260509054515 63 130 0.0 1.0 0.00 0.00 0.00 83 1014.7
20260509053014 63 130 1.0 3.0 0.00 0.00 0.00 83 1014.6
20260509051504 63 128 0.0 1.0 0.00 0.00 0.00 83 1014.9
20260509050006 63 128 0.0 2.0 0.00 0.00 0.00 83 1015.6
20260509044504 63 128 0.0 1.0 0.00 0.00 0.00 82 1015.4
20260509043022 64 128 0.0 2.0 0.00 0.00 0.00 82 1015.9
20260509041518 63 128 0.0 1.0 0.00 0.00 0.00 82 1015.9
20260509040005 64 128 0.0 1.0 0.00 0.00 0.00 82 1016.0
20260509034511 64 128 0.0 1.0 0.00 0.00 0.00 82 1016.1
20260509033010 64 128 0.0 1.0 0.00 0.00 0.00 81 1016.2
20260509031513 64 128 0.0 1.0 0.00 0.01 0.00 81 1016.4
20260509030016 64 128 0.0 1.0 0.00 0.01 0.00 80 1016.6
20260509024504 64 128 0.0 2.0 0.00 0.01 0.00 80 1016.4
20260509023012 64 128 0.0 1.0 0.00 0.01 0.00 80 1016.3
20260509021518 64 128 0.0 1.0 0.00 0.01 0.00 79 1016.2
20260509020014 65 128 0.0 2.0 0.00 0.01 0.00 78 1016.5
20260509014518 65 140 0.0 1.0 0.00 0.01 0.00 77 1016.1
20260509013013 65 140 0.0 2.0 0.00 0.01 0.00 76 1015.9
20260509011508 65 140 0.0 1.0 0.00 0.01 0.00 76 1016.2
20260509010022 65 144 0.0 1.0 0.00 0.01 0.00 75 1015.8
20260509004533 65 128 0.0 3.0 0.00 0.01 0.00 74 1015.8
20260509003027 65 101 0.0 2.0 0.00 0.01 0.00 73 1015.5
20260509001506 66 101 1.0 2.0 0.00 0.01 0.00 71 1015.8
20260509000008 66 101 0.0 2.0 0.00 0.01 0.00 70 1015.5
20260508234518 66 101 0.0 3.0 0.00 0.01 0.00 69 1015.1
20260508233018 67 125 0.0 2.0 0.00 0.01 0.00 68 1015.0
20260508231525 67 125 0.0 3.0 0.00 0.01 0.00 67 1015.1
20260508230023 68 144 0.0 4.0 0.00 0.01 0.00 67 1015.3
20260508224510 68 161 1.0 6.0 0.00 0.01 0.00 66 1015.4
20260508223022 68 117 0.0 6.0 0.00 0.01 0.00 67 1015.1
20260508221522 69 95 1.0 9.0 0.00 0.01 0.00 67 1014.9
20260508220023 69 93 1.0 4.0 0.00 0.01 0.00 65 1015.3
20260508214526 69 173 1.0 6.0 0.00 0.01 0.00 64 1015.0
20260508213012 70 169 3.0 10.0 0.00 0.01 0.00 62 1015.2
20260508211518 71 114 1.0 9.0 0.00 0.01 0.00 62 1015.1
20260508210029 73 183 2.0 8.0 0.00 0.01 0.00 60 1015.2
20260508204526 73 157 3.0 10.0 0.00 0.01 0.00 59 1014.7
20260508203025 74 79 2.0 7.0 0.00 0.02 0.00 52 1014.9
20260508201504 75 109 1.0 3.0 0.00 0.02 0.00 49 1014.6
20260508200028 75 94 1.0 5.0 0.00 0.09 0.00 47 1015.0
20260508194505 75 65 2.0 4.0 0.00 0.15 0.00 49 1015.4
20260508193010 74 16 1.0 4.0 0.00 0.16 0.00 50 1015.7
20260508191505 73 43 1.0 5.0 0.00 0.18 0.00 52 1015.5
20260508190004 73 309 2.0 7.0 0.00 0.24 0.00 49 1015.7
20260508184504 73 360 2.0 6.0 0.00 0.35 0.00 48 1015.9
20260508183008 73 125 2.0 4.0 0.00 0.36 0.00 48 1016.1
20260508181523 73 213 2.0 6.0 0.00 0.36 0.00 48 1016.1
20260508180004 72 310 0.0 9.0 0.00 0.36 0.00 53 1016.4
20260508174506 73 44 1.0 4.0 0.00 0.36 0.00 50 1016.6
20260508173003 73 25 1.0 5.0 0.00 0.36 0.00 52 1016.9
20260508171509 71 264 3.0 6.0 0.00 0.36 0.00 51 1016.9
20260508170016 71 95 2.0 7.0 0.00 0.36 0.00 50 1017.3
20260508164503 71 156 2.0 7.0 0.00 0.36 0.00 51 1017.3
20260508163003 70 328 5.0 8.0 0.00 0.36 0.00 51 1017.3
20260508161507 69 64 1.0 7.0 0.00 0.36 0.00 54 1017.8
20260508160015 69 98 2.0 6.0 0.00 0.36 0.00 52 1017.9
20260508154514 69 60 2.0 6.0 0.00 0.36 0.00 54 1018.2
20260508153004 68 329 3.0 8.0 0.00 0.36 0.00 55 1018.3
20260508151510 68 326 4.0 11.0 0.00 0.36 0.00 58 1018.3
20260508150011 68 86 1.0 5.0 0.00 0.36 0.00 61 1018.3
20260508144536 66 161 1.0 11.0 0.00 0.36 0.00 61 1018.3
20260508143018 66 53 2.0 6.0 0.00 0.36 0.00 63 1018.2
20260508141504 65 88 2.0 6.0 0.00 0.36 0.00 63 1017.9
20260508140010 65 5 2.0 10.0 0.00 0.36 0.00 67 1018.0
20260508134514 64 38 3.0 7.0 0.00 0.36 0.00 71 1017.8
20260508133023 63 82 2.0 6.0 0.00 0.36 0.00 75 1017.6
20260508131521 62 63 2.0 5.0 0.00 0.36 0.00 79 1017.5
20260508130026 61 60 1.0 5.0 0.00 0.36 0.00 82 1017.4
20260508124507 60 13 0.0 5.0 0.00 0.36 0.00 84 1017.2
20260508123014 60 5 0.0 4.0 0.00 0.36 0.00 81 1017.0
20260508121520 59 27 1.0 4.0 0.00 0.36 0.00 81 1016.9
20260508120022 58 57 0.0 3.0 0.00 0.36 0.00 80 1016.7
20260508114526 58 59 0.0 5.0 0.00 0.36 0.00 80 1016.4
20260508113012 58 51 0.0 2.0 0.00 0.36 0.00 79 1016.3
20260508111516 58 51 1.0 5.0 0.00 0.36 0.00 79 1016.1
20260508110042 57 5 0.0 4.0 0.00 0.36 0.00 79 1015.7
20260508104521 57 26 0.0 3.0 0.00 0.36 0.00 79 1015.2
20260508103026 58 36 0.0 2.0 0.00 0.36 0.00 80 1015.2
20260508101510 58 31 0.0 2.0 0.00 0.37 0.00 80 1015.0